Location: Austin
(30.3000°N, 97.7500°W)
Time: 23:43:52
(UTC-05:00)

SL-16 R/B - Pass Details

Date: 05 September 2024
Orbit: 842 x 845 km, 71.0° (Epoch: 14 September)

Event Time Altitude Azimuth Distance (km) Brightness Sun altitude
Rises 20:00:43 0° 210° (SSW) 3,384 5.6 -3.5°
Reaches altitude 10° 20:03:12 10° 215° (SW) 2,453 5.0 -4.1°
Maximum altitude 20:08:42 55° 292° (WNW) 1,010 3.1 -5.2°
Drops below altitude 10° 20:14:15 10° 10° (N) 2,466 4.7 -6.4°
Sets 20:16:46 0° 15° (NNE) 3,404 5.3 -6.9°
